Location: Grand Rapids
(42.9630°N, 85.6680°W)
Time: 03:26:12
(UTC-04:00)

S-56A Canister/Altair - Pass Details

Date: 05 June 2024
Orbit: 637 x 2489 km, 38.9° (Epoch: 22 June)

Event Time Altitude Azimuth Distance (km) Brightness Sun altitude
Rises 05:10:28 0° 254° (WSW) 6,029 - -8.7°
Exits shadow 05:11:54 - 254° (WSW) 5,684 11.4 -8.5°
Reaches altitude 10° 05:14:19 10° 253° (WSW) 5,103 11.1 -8.2°
Maximum altitude 05:29:24 74° 172° (S) 2,465 10.0 -6.1°
Drops below altitude 10° 05:42:11 10° 91° (E) 4,411 12.3 -4.2°
Sets 05:45:15 0° 90° (E) 5,201 12.8 -3.8°
